Location: Carbonear
(47.7333°N, 53.2500°W)
Time: 09:55:36
(UTC+00:00)

BEESAT - Pass Details

Date: 01 December 2022
Orbit: 697 x 707 km, 98.5° (Epoch: 05 February)

Event Time Altitude Azimuth Distance (km) Brightness Sun altitude
Rises 10:13:11 0° 130° (SE) 3,088 ? -7.9°
Reaches altitude 10° 10:15:44 10° 117° (ESE) 2,176 ? -7.5°
Maximum altitude 10:19:37 26° 63° (ENE) 1,396 ? -6.9°
Drops below altitude 10° 10:23:31 10° 8° (N) 2,191 ? -6.3°
Sets 10:26:06 0° 356° (N) 3,116 ? -5.9°
